129P/Shoemaker-Levy 3 (2005)

Japanese version
Home page
Updated on April 23, 2006

---------------------------------------------------------------------

* Profile

* Pictures

* Orbital Elements

Epoch 2005 May 30.0 TT = JDT 2453520.5
T 2005 June 4.7298 TT                                   MPCN
q   2.806948             (2000.0)            P               Q
n   0.1362959      Peri.  181.6731      -0.5778356      -0.8129051
a   3.739505       Node   303.6319      +0.7498169      -0.4935602
e   0.249380       Incl.    5.0120      +0.3223052      -0.3091660
P   7.23
From 234 observations 1991-1999, mean residual 0".6.

* Finding Charts

* Magnitudes Graph

        m1 = 8.8 + 5 log d + 15 log r

---------------------------------------------------------------------

The orbital elements are published at the MPC Ephemerides and Orbital Elements.
The charts are made with StellaNavigator Ver.2.0 for Windows (AstroArts / ASCII).
The magnitudes graphs are made with Comet for Windows.

---------------------------------------------------------------------

Copyright(C) Seiichi Yoshida (comet@aerith.net). All rights reserved.